Other Public Products
Issued by NWS Charleston, SC

Current Version | Previous Version | Graphics & Text | Print | Product List | Glossary On
Versions: 1 2 3 4 5 6 7 8 9 10 11 12 13 14 15 16 17 18 19 20 21 22 23 24 25 26 27 28 29 30 31 32 33 34 35 36 37 38 39 40 41 42 43 44 45 46 47 48 49 50
009 FPUS82 KCHS 222012 OPUCHS TEST...KCHS/KSAV Gateway Observations...TEST National Weather Service Charleston SC 400 PM EDT SUN OCT 22 2017 NOTE: "fair" indicates few or no clouds below 12,000 feet with no significant weather and/or obstructions to visibility. SCZ050-WAZ558-NCZ071-TXZ119-213-PAZ071-DCZ001-FLZ074-172-MI076- NYZ176-178-MAZ016-IL014-TNZ027-NJZ106-GAZ044-MD014-222100- ...Gateway Observations for Charleston International... CITY SKY/WX TMP DP RH WIND PRES REMARKS Chas Airport LGT RAIN 73 72 96 SE6 30.20F FOG Seattle CLOUDY 58 49 72 S13G20 30.22R Charlotte PTSUNNY 77 58 51 E8 30.25F Dallas DFW MOSUNNY 74 42 31 N13 30.12F Dallas Love MOSUNNY 74 41 30 N12 30.13F Philladelphia PTSUNNY 75 48 38 S7 30.34F Wash National PTSUNNY 76 54 46 S8 30.31F Baltimore PTSUNNY 74 42 31 SE8 30.32F Miami PTSUNNY 86 73 65 E15G23 30.05F HX 93 Detroit MOSUNNY 77 58 51 S12 30.06F Newark PTSUNNY 73 50 44 VRB7 30.35F Laguardia PTSUNNY 73 37 27 S10 30.36S J F K PTSUNNY 68 54 60 S10 30.38F Boston Logan PTSUNNY 62 56 80 NE10 30.39S Ft. Lauderdale PTSUNNY 86 75 69 E17 30.05S HX 95 Chicago O`Hare LGT RAIN 54 51 90 NW22 29.98R FOG Chicago Midway LGT RAIN 68 64 87 SW14 29.94R FOG Houston Bush PTSUNNY 74 61 63 NW14 30.09S Houston Hobby PTSUNNY 73 61 65 NW9 30.07S Nashville CLOUDY 78 59 51 S16G25 30.07F Atlanta PTSUNNY 78 64 61 E13 30.16F $$ GAZ044-118-TXZ119-213-NCZ071-DCZ001-MDZ014-506-PAZ021-071-NJZ106- NYZ176-178-MAZ106-OHZ011-021-055-MIZ076-KYZ091-ILZ014-INZ047- MNZ060-ONZ431-222100- ...Gateway Observations for Savannah International... CITY SKY/WX TMP DP RH WIND PRES REMARKS Savannah Arpt PTSUNNY 82 72 71 E14 30.16F Atlanta PTSUNNY 78 64 61 E13 30.16F Charlotte PTSUNNY 77 58 51 E8 30.25F Dallas DFW MOSUNNY 74 42 31 N13 30.12F Houston Bush PTSUNNY 74 61 63 NW14 30.09S Wash National PTSUNNY 76 54 46 S8 30.31F Wash Dulles PTSUNNY 74 57 55 S9 30.31F Baltimore PTSUNNY 74 42 31 SE8 30.32F Philadelphia PTSUNNY 75 48 38 S7 30.34F Newark PTSUNNY 73 50 44 VRB7 30.35F Laguardia PTSUNNY 73 37 27 S10 30.36S J F K PTSUNNY 68 54 60 S10 30.38F Boston PTSUNNY 62 56 80 NE10 30.39S Pittsburg PTSUNNY 76 48 37 S5 30.20F Akron MOSUNNY 77 50 38 S13 30.16F Cleveland PTSUNNY 78 48 34 S15G25 30.13F Cincinnati PTSUNNY 75 55 49 S14 30.12R Columbus MOSUNNY 74 53 46 SE12 30.13S Detroit MOSUNNY 77 58 51 S12 30.06F Chicago O`Hare LGT RAIN 54 51 90 NW22 29.98R FOG Minneapolis MOSUNNY 63 32 31 W15 29.95F Indianapolis PTSUNNY 76 58 53 S23 30.02S Toronto Canada MOSUNNY 72 54 53 SE13 30.15F $$

USA.gov is the U.S. government's official web portal to all federal, state and local government web resources and services.